Simultaneous Nadir Overpasses (SNOs) Predictions

Prediction of SNOs between GOES-17 and FY3D Satellite Orbit:

Table of predicted SNOs for the next 14.0 days since TLE Epoch: 4/2/2022
Index Date Time (GOES-17) GOES-17 Lat,Lon FY3D Lat,Lon Distance(km) Time Diff (sec)
1 04/02/2022 10:59:27 -0.03,-137.20 0.08,-137.83 70.63 80
2 04/03/2022 10:38:23 -0.03,-137.20 -0.91,-133.38 436.40 80
3 04/04/2022 23:03:32 0.03,-137.19 -0.31,-138.80 182.72 80
4 04/05/2022 22:42:29 0.03,-137.18 0.69,-134.35 323.89 80
5 04/07/2022 11:07:28 -0.03,-137.17 0.53,-139.73 291.05 80
6 04/08/2022 10:46:25 -0.03,-137.16 -0.47,-135.27 215.13 80
7 04/09/2022 23:11:33 0.02,-137.13 -0.81,-140.68 405.26 80
8 04/10/2022 22:53:10 0.02,-137.12 0.20,-136.23 100.67 80
9 04/13/2022 10:57:05 -0.01,-137.08 0.01,-137.16 9.62 80
10 04/14/2022 10:36:02 -0.01,-137.06 -0.99,-132.71 495.80 80
11 04/15/2022 22:58:31 0.01,-137.03 -0.22,-138.13 125.79 80
